Overview Statistics Trail Chart Weather Telemetry Raw packets
 

This is the latest recevied weather packets stored in our database for station/object K7CTM. If no packets are shown the sender has not sent any weather packets the latest 10 day(s).

<< 18 19 20 21 22 23 24 >>
Time Temp. Humidity Pressure Rain* Wind** Luminosity Snow
1788489121 22.78° C 26% 1020.6 hPa 0 mm - 0 W/m² -
1788488820 22.78° C 27% 1020.5 hPa 0 mm - 0 W/m² -
1788488517 22.22° C 28% 1020.4 hPa 0 mm - 0 W/m² -
1788488214 21.67° C 29% 1020.2 hPa 0 mm - 0 W/m² -
1788487908 23.33° C 28% 1019.5 hPa 0 mm - 0 W/m² -
1788487605 23.89° C 26% 1019.3 hPa 0 mm - 0 W/m² -
1788487299 23.33° C 26% 1019.4 hPa 0 mm - 1 W/m² -
1788486998 23.33° C 26% 1019.7 hPa 0 mm - 2 W/m² -
1788486697 23.89° C 25% 1020 hPa 0 mm - 3 W/m² -
1788486396 23.33° C 26% 1020 hPa 0 mm - 6 W/m² -
1788486091 23.33° C 26% 1020 hPa 0 mm - 7 W/m² -
1788485789 23.89° C 25% 1020.3 hPa 0 mm - 9 W/m² -
1788485484 23.89° C 25% 1020.3 hPa 0 mm - 14 W/m² -
1788485179 24.44° C 24% 1020.4 hPa 0 mm - 17 W/m² -
1788484878 23.89° C 25% 1020.2 hPa 0 mm - 20 W/m² -
1788484578 24.44° C 25% 1020.2 hPa 0 mm - 23 W/m² -
1788484273 24.44° C 25% 1020.2 hPa 0 mm - 24 W/m² -
1788483970 24.44° C 25% 1020.2 hPa 0 mm - 30 W/m² -
1788483666 25° C 24% 1020.2 hPa 0 mm - 33 W/m² -
1788483366 25° C 24% 1020.2 hPa 0 mm - 32 W/m² -
1788483061 25.56° C 23% 1020 hPa 0 mm - 35 W/m² -
1788482757 25.56° C 22% 1019.9 hPa 0 mm - 38 W/m² -
1788482452 26.11° C 22% 1019.9 hPa 0 mm - 43 W/m² -
1788482148 26.67° C 22% 1019.8 hPa 0 mm - 64 W/m² -
1788481843 26.67° C 22% 1019.8 hPa 0 mm - 59 W/m² -

* Rain latest hour (hover to see other rain measurements)
** Current wind speed in m/s (hover to see current wind gust speed)